,

(GMT )
Osoyoos

Weather History for CWYY - October, 2012

Change the Weather History Date:

Saturday, October 13, 2012

  Actual Average Record
Temperature  
Mean Temperature 58 °F -  
Max Temperature 63 °F - - ()
Min Temperature 52 °F - - ()
Degree Days  
Heating Degree Days 8    
Growing Degree Days 8 (Base 50)    
Moisture  
Dew Point 48 °F    
Average Humidity 73    
Maximum Humidity 89    
Minimum Humidity 51    
Precipitation  
Precipitation 0.00 in - - ()
Sea Level Pressure  
Sea Level Pressure 30.00 in    
Wind  
Wind Speed 3 mph ()    
Max Wind Speed 7 mph    
Max Gust Speed -    
T = Trace of Precipitation, MM = Missing Value Source: Averaged Metar Reports

Daily Weather History Graph

Daily Weather History Graph

Search for Another Location

Airport or City:

Trip Planner

Search our weather history database for the weather conditions in past years. The results will help you decide how hot, cold, wet, or windy it might be!

Date:

Astronomy

Oct. 13, 2012 Rise Set
Actual Time 7:16 AM PDT 6:10 PM PDT
Civil Twilight 6:44 AM PDT 6:42 PM PDT
Nautical Twilight 6:07 AM PDT 7:19 PM PDT
Astronomical Twilight 5:30 AM PDT 7:55 PM PDT
Moon 5:04 AM PDT (10/13) 5:01 PM PDT (10/13)
Length of Visible Light 11h 58m
Length of Day
10h 54m
Waning Crescent, 4% of the Moon is Illuminated
Oct 13
Waning Crescent
Oct 15
New
Oct 21
First Quarter
Oct 29
Full
Nov 6
Last Quarter

Hourly Weather History & Observations

Time (PDT) Temp. Dew Point Humidity Pressure Visibility Wind Dir Wind Speed Gust Speed Precip Events Conditions
12:00 AM 53.2 °F 49.6 °F 88% 29.85 in - Calm Calm - N/A   Unknown
2:00 AM 52.7 °F 45.9 °F 78% 29.87 in - Calm Calm - N/A   Unknown
3:00 AM 54.3 °F 46.0 °F 74% 29.89 in - East 2.3 mph - N/A   Unknown
4:00 AM 58.1 °F 46.2 °F 65% 29.91 in - South 4.6 mph - N/A   Unknown
5:00 AM 57 °F 46 °F 57% 29.93 in - SSE 4.6 mph - -  
5:00 AM 56.7 °F 45.9 °F 67% 29.93 in - SSE 4.6 mph - N/A   Unknown
6:00 AM 55.9 °F 46.0 °F 69% 29.95 in - SSE 5.8 mph - N/A   Unknown
7:00 AM 53.2 °F 46.6 °F 78% 29.97 in - East 2.3 mph - N/A   Unknown
8:00 AM 53.8 °F 46.8 °F 77% 29.99 in - East 2.3 mph - N/A   Unknown
9:00 AM 55.9 °F 48.0 °F 75% 30.01 in - SSW 4.6 mph - N/A   Unknown
10:00 AM 56.8 °F 46.6 °F 69% 30.04 in - SSE 5.8 mph - N/A   Unknown
11:00 AM 57 °F 47 °F 60% 30.04 in - South 5.8 mph - -  
11:00 AM 56.8 °F 46.8 °F 69% 30.04 in - South 5.8 mph - N/A   Unknown
12:00 PM 58.1 °F 47.3 °F 67% 30.05 in - SE 3.5 mph - N/A   Unknown
1:00 PM 57.6 °F 48.9 °F 73% 30.06 in - ENE 1.2 mph - N/A   Unknown
2:00 PM 59.5 °F 49.8 °F 70% 30.04 in - SSW 2.3 mph - N/A   Unknown
3:00 PM 58.8 °F 51.4 °F 76% 30.06 in - Calm Calm - N/A   Unknown
6:00 PM 58.3 °F 52.3 °F 81% 30.04 in - West 2.3 mph - N/A   Unknown
7:00 PM 56.1 °F 52.2 °F 87% 30.04 in - NNE 1.2 mph - N/A   Unknown
8:00 PM 55.8 °F 51.8 °F 87% 30.05 in - SSW 1.2 mph - N/A   Unknown
9:00 PM 54.5 °F 51.3 °F 89% 30.05 in - SE 1.2 mph - N/A   Unknown
10:00 PM 55.8 °F 51.8 °F 87% 30.06 in - SE 2.3 mph - N/A   Unknown
11:00 PM 62 °F 48 °F 51% 30.04 in - SSE 6.9 mph - -  
11:00 PM 62.2 °F 48.4 °F 60% 30.04 in - SSE 6.9 mph - N/A   Unknown